North Port FAWN current weather conditions

sailwx.info

Wind from 048 at 0 knots

Air temperature 8.0° C
Dewpoint 7.8° C

Last reported at 2019-Dec-07 11:00 UTC.
Time now 2019-Dec-07 11:57 UTC

Location: N 27°09' W 082°12'.
View on Google Maps.

See reports from other nearby stations

  
Tides and Currents Weather Stations Pressure Air Temp Water Temp Dewpoint Dewpoint Depression Visibility Wind Speed Wind Dir Waves Ship Positions
date/time (UTC)wind fromknots sea level pressurealtimeterstation pressurevisibilityair tempwater tempwave heightnotes
2019-Dec-07 11:00 048 0 8.0
2019-Dec-07 10:45 031 0 7.7
2019-Dec-07 10:30 085 0 7.8
2019-Dec-07 10:15 030 0 8.0
2019-Dec-07 10:00 066 1 7.9
2019-Dec-07 09:45 014 1 7.6
2019-Dec-07 09:30 119 0 7.6
2019-Dec-07 09:15 081 0 7.5
2019-Dec-07 09:00 070 0 7.6
2019-Dec-07 08:45 084 0 7.7
2019-Dec-07 08:30 341 1 7.6
2019-Dec-07 08:15 015 0 7.7
2019-Dec-07 08:00 084 0 7.7
2019-Dec-07 07:45 126 0 7.7
2019-Dec-07 07:30 240 0 7.4
2019-Dec-07 07:15 319 1 7.3
2019-Dec-07 07:00 302 1 7.2
2019-Dec-07 06:45 341 1 7.7
2019-Dec-07 06:30 177 0 7.8
2019-Dec-07 06:15 101 0 8.2
2019-Dec-07 06:00 065 0 8.2
2019-Dec-07 05:45 130 2 8.4
2019-Dec-07 05:30 133 1 8.5
2019-Dec-07 05:15 130 2 8.6
2019-Dec-07 05:00 114 1 8.2
2019-Dec-07 04:45 021 0 7.8
2019-Dec-07 04:30 241 0 7.9
2019-Dec-07 04:15 236 1 8.1
2019-Dec-07 04:00 196 0 8.9
2019-Dec-07 03:45 085 0 8.8
2019-Dec-07 03:30 091 0 8.7
2019-Dec-07 03:15 175 0 8.9
2019-Dec-07 03:00 011 0 9.0
2019-Dec-07 02:45 010 0 9.2
2019-Dec-07 02:30 140 0 9.7
2019-Dec-07 02:15 195 0 9.7
2019-Dec-07 02:00 004 0 9.8
2019-Dec-07 01:45 033 0 10.0
2019-Dec-07 01:30 124 0 10.6
2019-Dec-07 01:15 128 0 11.0
2019-Dec-07 01:00 078 0 11.0
2019-Dec-07 00:45 054 0 11.2
2019-Dec-07 00:30 013 0 11.7
2019-Dec-07 00:15 354 0 12.0
2019-Dec-07 00:00 338 0 12.5
2019-Dec-06 23:45 260 0 12.9
2019-Dec-06 23:30 282 2 13.4
2019-Dec-06 23:15 284 1 14.7
2019-Dec-06 23:00 278 1 16.1
2019-Dec-06 22:45 282 1 17.9
2019-Dec-06 22:30 277 2 19.9
2019-Dec-06 22:15 294 1 21.5
2019-Dec-06 22:00 302 2 21.8
2019-Dec-06 21:45 302 2 22.1
2019-Dec-06 21:30 288 3 22.8
2019-Dec-06 21:15 283 3 23.1
2019-Dec-06 21:00 270 3 23.6
2019-Dec-06 20:45 257 4 23.8
2019-Dec-06 20:30 269 4 23.8
2019-Dec-06 20:15 253 4 24.1
2019-Dec-06 20:00 259 3 24.4
2019-Dec-06 19:45 234 3 24.4
2019-Dec-06 19:30 255 3 24.4
2019-Dec-06 19:15 261 3 24.4
2019-Dec-06 19:00 254 3 24.3
2019-Dec-06 18:45 249 3 24.4
2019-Dec-06 18:30 231 2 24.3
2019-Dec-06 18:15 240 2 23.6
2019-Dec-06 18:00 189 3 23.2
2019-Dec-06 17:45 189 2 23.4
2019-Dec-06 17:30 213 2 23.6
2019-Dec-06 17:15 249 2 23.0
2019-Dec-06 17:00 350 2 22.4
2019-Dec-06 16:45 098 1 22.1
2019-Dec-06 16:30 350 2 21.8
2019-Dec-06 16:15 346 2 21.4
2019-Dec-06 16:00 040 1 21.3
2019-Dec-06 15:45 081 2 20.6
2019-Dec-06 15:30 084 2 20.3
2019-Dec-06 15:15 104 1 19.6
2019-Dec-06 15:00 082 1 18.5
2019-Dec-06 14:45 070 2 17.7
2019-Dec-06 14:30 074 1 16.6
2019-Dec-06 14:15 065 2 15.4
2019-Dec-06 14:00 059 1 14.5
2019-Dec-06 13:45 072 1 12.8
2019-Dec-06 13:30 092 1 11.7
2019-Dec-06 13:15 102 0 10.0
2019-Dec-06 13:00 093 0 8.1
2019-Dec-06 12:45 123 0 6.7
2019-Dec-06 12:30 056 0 5.8
2019-Dec-06 12:15 141 1 5.8
2019-Dec-06 12:00 163 0 5.8
2019-Dec-06 11:45 039 0 5.8
2019-Dec-06 11:30 113 0 6.0
2019-Dec-06 11:15 061 0 6.1
2019-Dec-06 11:00 128 0 6.0
2019-Dec-06 10:45 088 0 5.8
2019-Dec-06 10:30 110 0 5.8
2019-Dec-06 10:15 055 0 5.9
2019-Dec-06 10:00 048 0 6.0
2019-Dec-06 09:45 066 0 6.1
2019-Dec-06 09:30 126 0 6.0
2019-Dec-06 09:15 027 0 6.0
2019-Dec-06 08:45 077 0 6.3
2019-Dec-06 08:15 104 0 6.5
2019-Dec-06 08:00 046 0 6.5
2019-Dec-06 07:45 068 1 6.9
2019-Dec-06 07:30 091 1 6.9
2019-Dec-06 07:15 044 1 6.6
2019-Dec-06 07:00 041 1 7.0
2019-Dec-06 06:45 050 1 7.0
2019-Dec-06 06:30 053 1 6.8
2019-Dec-06 06:15 036 1 7.1
2019-Dec-06 06:00 038 1 6.8
2019-Dec-06 05:45 021 1 6.9
2019-Dec-06 05:30 014 0 6.8
2019-Dec-06 05:15 122 0 6.8
2019-Dec-06 05:00 072 0 6.7
2019-Dec-06 04:45 028 0 6.6
2019-Dec-06 04:30 017 0 7.0
2019-Dec-06 04:15 330 0 7.2
2019-Dec-06 04:00 017 1 7.5
2019-Dec-06 03:45 076 0 7.5
2019-Dec-06 03:30 028 0 7.4
2019-Dec-06 03:15 015 1 7.6
2019-Dec-06 03:00 021 0 8.0
2019-Dec-06 02:45 022 0 8.2
2019-Dec-06 02:30 105 0 8.5
2019-Dec-06 02:15 063 0 8.3
2019-Dec-06 02:00 359 0 8.8
2019-Dec-06 01:45 153 0 9.2
2019-Dec-06 01:30 112 0 9.4
2019-Dec-06 01:15 033 0 9.6
2019-Dec-06 01:00 053 1 9.8
2019-Dec-06 00:45 030 2 10.3
2019-Dec-06 00:30 031 2 10.6
2019-Dec-06 00:15 071 0 10.6
2019-Dec-06 00:00 037 0 10.8
2019-Dec-05 23:45 022 1 11.5
2019-Dec-05 23:30 003 1 12.1
2019-Dec-05 23:15 011 1 12.9
2019-Dec-05 23:00 096 0 14.1
2019-Dec-05 22:45 223 0 15.4
2019-Dec-05 22:30 016 0 17.3
2019-Dec-05 22:15 029 1 19.1
2019-Dec-05 22:00 025 3 19.8
2019-Dec-05 21:45 027 3 20.5
2019-Dec-05 21:30 028 4 20.9
2019-Dec-05 21:15 008 3 21.6
2019-Dec-05 21:00 009 4 21.8
2019-Dec-05 20:45 008 5 21.7
2019-Dec-05 20:30 353 6 21.5
2019-Dec-05 20:15 351 5 21.5
2019-Dec-05 20:00 348 6 21.8
2019-Dec-05 19:45 356 5 21.8
2019-Dec-05 19:30 002 4 21.3
2019-Dec-05 19:15 003 5 21.5
2019-Dec-05 19:00 009 3 21.1
2019-Dec-05 18:45 019 4 20.8
2019-Dec-05 18:30 016 5 21.1
2019-Dec-05 18:15 037 4 20.1
2019-Dec-05 18:00 029 3 20.0
2019-Dec-05 17:45 029 4 19.7
2019-Dec-05 17:30 025 3 19.6
2019-Dec-05 17:15 018 4 19.7
2019-Dec-05 17:00 020 4 19.6
2019-Dec-05 16:45 037 4 19.5
2019-Dec-05 16:30 035 4 19.6
2019-Dec-05 16:15 022 5 19.5
2019-Dec-05 16:00 026 6 18.9
2019-Dec-05 15:45 034 5 18.1
2019-Dec-05 15:30 035 5 18.1
2019-Dec-05 15:15 026 5 17.6
2019-Dec-05 15:00 036 5 16.9
2019-Dec-05 14:45 036 5 16.1
2019-Dec-05 14:30 031 4 15.6
2019-Dec-05 14:15 029 3 14.7
2019-Dec-05 14:00 051 2 13.6
2019-Dec-05 13:45 065 1 12.4
2019-Dec-05 13:30 062 1 11.3
2019-Dec-05 13:15 126 0 10.6
2019-Dec-05 13:00 173 0 8.8
2019-Dec-05 12:45 189 0 7.9
2019-Dec-05 12:30 079 0 7.5
2019-Dec-05 12:15 089 0 7.3
2019-Dec-05 12:00 083 0 7.3
2019-Dec-05 11:45 112 0 7.2
2019-Dec-05 11:30 296 0 7.4